User: anonymous   Login
Location: Aytr�
(46.1357°N, 1.1145°W)
Time: 14:12:05
(UTC+00:00)
Language:

Cosmos 1666 - Orbit

View from above orbital plane
View from above orbital plane
View from above satellite
View from above satellite

Ground track
Ground track

The orbit data is extracted from the following two-line orbital elements,

1 15889U 85058A   21127.17444922  .00000721  00000-0  32319-4 0  9995
2 15889  82.4904  25.0021 0017211 155.2478 204.9586 15.19447920957641
Epoch (UTC): 07 May 2021 04:11:12
Eccentricity: 0.0017211
inclination: 82.4904°
perigee height: 495 km
apogee height: 519 km
right ascension of ascending node: 25.0021°
argument of perigee: 155.2478°
revolutions per day: 15.19447920
mean anomaly at epoch: 204.9586°
orbit number at epoch: 95764

The dashed part of the orbit path shows where the satellite is in the earth's shadow,  

DLR